Temp
14 14 13 13 13 13 13 13 13 13 13 13 13 12 12 12 12 12 12 12 12 12 12 12 12 13 13 13 13 12 12 13 13 13 13 13 13 13 13 13 13 13
14 13 13 13 13 13 13 13 13 13 13 12 12 12 12 12 12 12 12 12 12 12 12 12 12 12 12 12 12 12 12 13 12 13 13 13 13 13 13 13 13 13
14 13 13 13 13 13 13 13 13 12 12 12 12 12 12 12 12 12 12 11 11 12 12 12 11 11 12 12 12 12 12 12 12 12 12 12 12 12 13 13 13 13
13 13 13 13 13 13 13 13 12 12 12 12 12 12 12 12 12 12 11 11 11 12 12 12 11 11 11 12 12 12 12 12 12 12 12 12 12 12 13 13 13 13
13 13 13 13 13 13 13 13 12 12 12 12 12 12 12 12 12 11 11 11 11 12 12 11 11 11 11 12 12 12 12 12 12 12 12 12 12 12 13 13 13 13
13 13 13 13 12 13 13 12 12 12 12 12 12 12 12 12 12 11 11 11 11 11 11 11 11 11 11 12 12 12 12 12 12 12 13 12 12 12 12 12 12 12
13 13 12 12 12 12 12 12 12 12 11 11 12 12 12 12 12 11 11 11 11 11 11 11 11 11 11 12 12 12 12 12 12 13 13 13 12 13 12 12 12 12
13 13 12 12 12 12 12 12 12 12 11 11 11 11 11 12 12 11 11 12 12 12 12 11 11 11 11 12 12 12 12 12 12 13 13 13 13 13 12 12 12 12
12 12 12 12 12 12 12 12 12 11 11 11 11 11 12 12 11 12 12 12 12 12 12 12 12 11 11 12 12 12 12 12 12 13 12 12 13 13 13 12 12 12
12 12 12 12 12 12 12 12 12 12 12 12 12 12 12 12 12 12 12 12 12 12 12 12 12 12 12 12 12 12 12 12 12 12 12 13 13 13 13 13 12 12
12 12 12 12 12 12 12 12 12 12 12 12 12 12 12 12 12 12 12 12 12 12 12 12 12 12 12 12 12 12 12 12 12 12 12 13 13 13 13 13 12 12
13 12 12 12 12 12 12 12 11 12 12 12 12 12 12 12 12 12 12 12 12 12 12 12 12 12 12 12 12 12 12 12 12 12 12 12 12 12 13 12 12 12
13 13 13 12 12 12 12 11 11 12 12 12 12 12 12 12 12 12 12 12 12 12 12 12 12 12 12 12 12 12 12 12 12 12 12 12 12 12 12 12 12 12
13 13 12 12 12 12 12 11 11 11 12 12 12 12 11 11 12 11 11 12 12 12 12 12 12 12 12 12 12 12 12 12 12 12 12 12 12 12 12 12 12 12
13 13 12 12 12 12 12 11 11 11 11 12 12 11 11 11 12 11 11 12 12 12 12 12 12 12 12 12 12 12 12 12 12 12 12 12 12 12 12 12 12 12
12 12 12 12 12 12 12 12 11 11 11 11 11 11 11 11 11 11 11 11 11 11 11 11 11 12 12 12 12 12 12 12 12 12 12 12 11 12 11 11 12 11
12 12 12 11 11 11 11 11 11 11 11 11 11 11 11 11 11 11 11 11 11 11 10 10 11 11 12 12 12 12 12 12 12 12 12 12 11 12 11 11 11 11
12 12 11 11 11 11 11 11 11 11 11 11 11 11 11 10 10 10 10 10 10 10 10 10 11 11 11 12 12 12 12 12 12 12 12 12 12 12 12 11 11 11
12 12 11 11 11 11 10 10 10 10 11 10 10 11 11 11 10 10 10 10 10 10 10 10 11 11 11 12 12 12 12 12 12 11 11 12 12 12 12 12 11 11
11 11 10 10 10 10 10 10 10 10 10 10 10 11 11 11 10 11 11 11 11 11 11 11 11 11 11 12 12 12 12 12 12 11 11 11 11 11 11 11 11 11
10 10 10 10 10 10 10 10 10 9 10 10 10 10 11 10 10 10 10 11 11 11 11 11 11 11 11 12 12 12 11 12 12 12 11 11 11 11 11 11 11 11
9 9 9 9 9 9 9 9 9 9 9 10 10 10 10 10 10 10 10 11 11 10 10 11 10 10 11 12 12 11 11 11 11 11 11 11 11 11 10 10 10 10
8 8 8 9 8 9 9 9 8 9 9 9 9 9 9 10 10 10 10 10 10 10 10 10 10 10 10 11 11 11 11 11 10 10 10 10 10 10 10 10 10 10
8 8 7 8 8 8 8 8 8 8 8 8 9 9 9 9 9 10 10 10 10 9 9 10 10 10 10 10 10 10 10 10 10 10 10 10 10 10 10 10 10 10
7 7 7 7 7 8 8 8 8 8 8 8 8 8 8 9 9 9 9 9 9 9 9 9 9 9 10 10 10 10 10 10 10 10 9 9 9 9 10 10 9 9
7 7 7 7 7 7 8 8 8 8 8 8 8 8 8 8 8 8 9 9 9 8 9 9 9 9 9 9 9 9 10 9 9 9 9 9 9 9 9 9 9 9
Height
1514 1518 1521 1523 1523 1524 1524 1525 1525 1526 1527 1528 1530 1531 1533 1534 1535 1536 1537 1538 1539 1541 1541 1543 1543 1544 1546 1547 1548 1550 1550 1550 1551 1551 1552 1553 1554 1554 1555 1555 1556 1557
1514 1518 1521 1522 1522 1523 1524 1525 1525 1527 1528 1529 1530 1531 1533 1534 1535 1536 1538 1539 1540 1541 1541 1543 1544 1545 1547 1547 1548 1550 1550 1550 1551 1552 1553 1553 1554 1554 1555 1555 1556 1557
1514 1517 1519 1521 1521 1522 1523 1524 1526 1527 1527 1528 1529 1531 1532 1533 1535 1537 1539 1540 1541 1541 1542 1543 1544 1546 1547 1548 1549 1550 1551 1552 1552 1553 1554 1554 1554 1555 1555 1556 1556 1557
1513 1516 1517 1518 1519 1521 1522 1524 1525 1526 1527 1528 1529 1531 1532 1533 1536 1538 1539 1540 1541 1541 1542 1544 1545 1547 1548 1549 1550 1551 1552 1553 1553 1554 1554 1555 1555 1555 1555 1556 1556 1557
1511 1513 1515 1516 1518 1520 1521 1523 1525 1526 1527 1529 1530 1531 1532 1533 1536 1538 1540 1541 1542 1542 1543 1545 1546 1547 1548 1550 1551 1552 1552 1553 1554 1554 1555 1555 1556 1556 1555 1556 1556 1557
1509 1511 1513 1515 1517 1519 1521 1523 1526 1527 1528 1529 1530 1531 1532 1534 1537 1539 1540 1541 1543 1543 1544 1545 1547 1548 1549 1551 1552 1552 1553 1554 1554 1555 1556 1556 1556 1556 1556 1556 1556 1557
1508 1510 1513 1515 1517 1519 1522 1524 1526 1528 1529 1529 1530 1532 1533 1535 1537 1539 1541 1542 1543 1545 1545 1546 1547 1549 1550 1551 1552 1553 1554 1554 1555 1555 1556 1556 1556 1557 1557 1557 1557 1557
1508 1509 1512 1515 1517 1520 1522 1525 1527 1528 1529 1530 1531 1533 1534 1536 1538 1539 1541 1543 1544 1545 1546 1547 1548 1549 1551 1552 1553 1553 1554 1554 1555 1556 1556 1556 1557 1557 1557 1557 1558 1558
1507 1509 1512 1514 1517 1520 1523 1525 1527 1528 1530 1531 1532 1534 1535 1537 1538 1539 1541 1543 1544 1546 1546 1547 1549 1550 1551 1552 1553 1554 1554 1555 1555 1556 1556 1557 1557 1558 1558 1558 1558 1559
1508 1510 1512 1514 1517 1520 1522 1525 1527 1528 1530 1531 1533 1535 1536 1537 1539 1540 1542 1543 1544 1546 1547 1548 1549 1550 1552 1553 1554 1554 1555 1556 1556 1556 1557 1558 1558 1559 1559 1559 1559 1560
1510 1512 1514 1516 1518 1520 1522 1524 1526 1528 1529 1531 1534 1535 1537 1538 1539 1540 1542 1543 1545 1546 1547 1548 1549 1551 1552 1553 1554 1555 1556 1557 1557 1557 1558 1558 1559 1559 1559 1560 1560 1561
1510 1513 1515 1517 1519 1521 1522 1524 1526 1528 1530 1531 1534 1535 1537 1538 1539 1540 1542 1543 1545 1547 1548 1549 1550 1551 1552 1553 1555 1555 1556 1557 1558 1558 1559 1559 1559 1560 1560 1560 1561 1561
1510 1512 1514 1516 1519 1521 1523 1525 1527 1529 1531 1532 1534 1535 1536 1538 1539 1540 1542 1544 1546 1547 1548 1549 1550 1551 1553 1554 1555 1556 1556 1557 1558 1559 1559 1559 1560 1560 1561 1561 1561 1561
1510 1512 1513 1516 1519 1521 1523 1525 1527 1529 1531 1533 1534 1535 1536 1538 1539 1540 1542 1543 1545 1547 1548 1549 1550 1552 1553 1554 1555 1556 1557 1557 1558 1559 1559 1559 1560 1560 1561 1561 1561 1561
1509 1512 1514 1516 1519 1521 1523 1525 1527 1529 1531 1533 1534 1535 1536 1538 1539 1540 1542 1543 1545 1547 1548 1549 1550 1552 1553 1554 1555 1556 1557 1557 1558 1559 1559 1559 1560 1560 1560 1561 1561 1561
1508 1511 1514 1516 1519 1521 1523 1524 1526 1528 1531 1532 1534 1534 1536 1538 1539 1541 1542 1543 1544 1545 1547 1548 1550 1551 1552 1553 1554 1555 1556 1557 1558 1558 1559 1559 1560 1560 1560 1560 1561 1561
1507 1510 1514 1517 1519 1521 1523 1524 1525 1526 1528 1530 1532 1533 1535 1538 1540 1541 1542 1543 1544 1545 1546 1547 1548 1549 1550 1552 1553 1554 1555 1557 1557 1558 1559 1559 1559 1559 1560 1560 1560 1560
1508 1510 1513 1516 1519 1520 1522 1524 1525 1526 1527 1529 1530 1532 1534 1537 1539 1540 1541 1542 1544 1545 1546 1547 1547 1549 1550 1552 1553 1554 1555 1555 1557 1558 1558 1558 1558 1559 1559 1559 1559 1559
1508 1510 1513 1516 1518 1520 1522 1524 1525 1526 1527 1529 1531 1532 1534 1536 1538 1539 1540 1541 1542 1544 1545 1546 1547 1549 1550 1551 1552 1554 1554 1555 1556 1557 1557 1558 1558 1558 1558 1558 1558 1557
1509 1510 1513 1515 1518 1521 1523 1524 1525 1526 1527 1529 1531 1533 1535 1537 1538 1539 1540 1541 1543 1544 1545 1546 1547 1549 1550 1551 1552 1553 1553 1554 1554 1555 1555 1556 1556 1556 1555 1555 1555 1555
1511 1512 1514 1516 1519 1521 1523 1523 1524 1525 1527 1529 1531 1533 1535 1536 1538 1539 1540 1541 1543 1544 1545 1546 1547 1548 1549 1551 1552 1552 1552 1553 1553 1553 1553 1554 1553 1553 1552 1552 1552 1553
1513 1515 1516 1518 1519 1521 1522 1523 1524 1525 1527 1529 1531 1533 1534 1536 1538 1539 1540 1541 1543 1544 1545 1546 1547 1548 1549 1550 1551 1551 1551 1552 1552 1552 1552 1552 1551 1551 1550 1549 1549 1550
1515 1516 1517 1518 1520 1520 1522 1523 1524 1525 1528 1529 1531 1533 1534 1536 1538 1539 1540 1541 1542 1542 1544 1546 1547 1547 1548 1549 1549 1550 1550 1551 1551 1551 1551 1551 1550 1549 1548 1548 1548 1548
1516 1517 1518 1520 1520 1521 1522 1524 1525 1526 1528 1530 1531 1532 1534 1536 1537 1538 1539 1540 1541 1542 1543 1545 1546 1546 1547 1547 1548 1548 1549 1549 1550 1550 1550 1549 1548 1548 1548 1548 1548 1547
1519 1519 1520 1521 1521 1522 1523 1525 1526 1527 1529 1530 1531 1532 1533 1534 1535 1536 1538 1539 1540 1541 1542 1544 1544 1544 1545 1545 1546 1546 1547 1548 1548 1548 1548 1548 1547 1547 1547 1546 1546 1545
1520 1521 1522 1522 1523 1523 1524 1525 1527 1528 1529 1531 1532 1533 1533 1534 1534 1535 1537 1538 1539 1540 1541 1542 1543 1543 1543 1543 1544 1545 1545 1546 1546 1546 1546 1546 1546 1545 1545 1545 1544 1544
Wind_Speed
17 16 16 16 15 14 13 12 12 12 11 11 11 11 11 10 9 9 8 8 8 7 7 7 7 9 8 8 8 5 4 5 5 5 6 6 6 5 5 7 7 7
18 17 17 16 15 14 14 13 13 13 11 11 12 12 12 12 11 10 7 7 6 6 7 6 6 8 7 6 8 6 4 5 5 5 5 5 4 4 4 5 6 7
20 20 19 18 16 16 16 16 14 13 13 14 14 14 12 13 12 9 8 7 6 7 7 7 8 9 7 7 8 7 6 7 6 6 6 5 4 3 3 4 5 6
23 21 20 18 17 16 16 17 15 13 13 13 14 13 13 13 12 9 8 8 7 7 8 9 9 9 8 8 8 8 7 7 7 7 6 5 4 3 4 4 5 7
22 20 18 16 16 16 16 16 15 12 12 12 13 13 14 14 12 9 9 8 7 7 9 10 10 9 9 9 9 9 8 7 7 6 4 4 4 4 5 5 6 8
21 20 17 16 16 17 16 16 14 11 11 12 13 13 13 13 12 10 9 8 8 7 8 10 10 10 10 9 9 9 8 7 7 6 5 5 5 4 4 5 6 8
20 20 18 16 16 16 16 15 14 12 11 11 12 12 13 14 12 11 10 9 8 8 7 9 10 10 10 9 9 8 7 7 7 6 6 5 5 5 4 4 5 7
20 20 18 17 16 16 15 15 14 13 11 10 11 11 13 14 12 11 10 9 9 8 8 8 10 10 10 9 8 8 7 8 7 7 7 6 6 6 5 5 6 7
19 19 17 17 16 16 15 14 13 12 11 10 10 10 12 13 12 11 10 9 9 9 8 8 10 10 9 8 8 8 8 8 8 8 8 7 7 6 6 6 7 8
17 17 17 16 16 17 16 15 14 12 12 11 10 10 12 12 11 11 10 9 9 9 9 9 10 10 9 8 8 8 9 9 9 9 8 7 7 7 7 7 7 8
15 14 16 16 15 16 16 16 16 14 13 12 11 11 12 11 11 11 10 10 9 9 9 10 10 10 10 9 9 9 9 9 9 9 8 7 7 7 7 7 8 8
17 15 16 16 14 15 15 15 15 14 13 13 12 11 11 11 11 11 11 10 9 9 10 10 11 11 11 10 10 10 10 9 9 8 7 6 6 6 6 7 7 7
17 18 18 17 16 15 15 15 14 14 13 12 12 11 11 10 10 11 11 10 9 9 10 10 11 12 11 11 11 10 10 9 9 8 7 7 7 6 6 6 6 6
16 18 19 18 17 16 16 15 14 14 13 12 11 11 10 10 10 11 12 11 9 9 10 11 12 12 11 11 10 10 9 9 9 8 7 7 7 6 6 6 5 5
17 17 19 19 18 17 17 17 15 14 13 12 12 11 10 10 10 11 12 11 10 9 10 11 12 12 13 13 11 10 9 8 8 7 7 7 7 6 6 6 5 6
20 19 20 21 20 18 18 19 19 17 15 13 12 11 10 9 10 11 11 11 10 10 11 11 11 13 15 15 14 12 9 7 7 7 7 7 7 7 7 7 7 6
20 21 21 21 21 20 19 20 21 21 20 18 16 14 13 11 10 10 10 10 9 10 10 11 12 15 18 17 16 14 11 8 7 7 7 8 8 8 8 8 8 7
17 19 20 20 21 22 22 22 22 20 20 20 19 17 16 15 13 12 11 11 10 9 9 10 12 14 16 17 16 14 12 11 8 6 7 8 8 8 8 8 8 8
14 18 20 20 20 21 21 22 22 20 20 19 17 16 16 16 15 14 13 13 13 11 9 10 10 10 11 14 14 13 13 12 10 7 7 8 8 9 9 9 9 9
13 16 19 20 20 18 18 20 21 22 22 20 16 15 15 14 12 11 11 11 11 10 9 9 8 7 8 10 13 14 14 14 13 12 10 10 10 11 11 11 11 11
11 11 12 15 16 16 19 20 20 20 21 21 18 16 15 13 10 8 9 9 9 9 11 11 10 11 12 13 15 16 16 16 16 16 16 14 14 16 15 14 14 13
14 11 10 11 12 13 16 17 15 16 20 22 21 21 21 19 13 9 9 10 11 12 14 14 13 14 15 16 17 17 17 17 17 18 19 18 19 20 17 14 14 15
14 14 12 10 10 11 12 12 12 13 17 19 20 20 21 20 17 12 10 11 13 13 13 13 13 14 14 15 16 17 17 18 18 19 20 20 20 19 15 13 15 16
13 14 14 11 9 11 10 9 9 10 12 14 17 18 18 17 16 14 12 12 15 16 14 13 14 15 15 15 16 17 18 18 18 19 19 18 17 16 15 15 17 19
14 13 12 10 9 11 11 9 9 9 9 9 11 14 16 16 16 15 13 13 14 15 14 14 15 14 14 15 15 15 16 17 18 19 18 15 14 15 16 16 15 16
16 15 14 13 11 11 12 12 11 10 10 10 8 8 10 12 13 13 12 12 13 14 14 14 14 13 12 12 13 14 15 16 17 17 16 15 16 17 17 16 15 14
Wind_Direction
180 187 183 174 173 169 161 162 165 164 163 163 162 158 156 162 164 155 162 176 169 173 183 183 195 186 179 188 166 145 203 186 171 197 199 195 202 205 199 196 188 173
180 183 176 167 166 164 163 164 163 161 157 159 159 155 159 163 156 149 153 156 156 179 187 177 174 157 155 180 156 140 174 164 150 167 168 167 174 174 183 191 182 170
181 178 171 166 166 167 169 162 158 160 163 171 170 161 164 162 148 146 153 150 163 188 179 163 158 145 146 161 150 143 148 139 140 146 145 148 150 160 180 183 180 165
176 173 166 166 166 167 169 163 157 160 166 174 171 166 173 167 150 150 160 157 172 185 169 156 150 145 149 149 145 148 147 146 154 151 149 154 152 176 186 172 172 157
170 166 161 162 165 165 165 161 156 159 163 164 165 170 179 169 152 154 163 158 165 172 162 154 150 149 152 149 149 153 151 157 165 157 157 164 164 184 182 167 166 155
167 160 156 158 162 163 160 156 154 158 164 168 169 175 178 166 154 160 165 156 156 161 158 158 158 155 155 154 157 158 157 164 166 158 160 163 164 170 168 171 168 156
166 158 153 153 156 157 155 154 155 158 165 168 167 170 172 165 159 163 162 156 156 158 160 166 165 161 162 162 163 162 164 169 164 157 158 155 150 150 154 166 161 154
166 160 154 151 152 152 154 158 159 159 162 161 158 164 167 163 162 165 162 159 161 160 162 168 168 167 167 166 170 173 169 166 160 156 155 147 144 147 147 149 147 149
163 159 155 152 152 152 155 161 162 158 157 155 155 164 166 164 167 167 163 163 164 163 162 162 166 170 169 169 175 176 168 162 159 157 152 141 137 140 140 140 143 146
161 155 153 154 156 158 159 162 162 160 160 158 158 167 168 168 171 167 166 169 167 167 164 160 164 168 167 169 172 168 164 161 156 152 146 139 134 135 135 134 137 142
164 152 149 153 158 163 164 163 161 161 162 161 162 169 169 171 175 171 170 172 170 170 168 163 164 165 163 164 162 159 158 156 153 150 147 145 139 132 131 132 134 139
172 167 160 157 159 165 165 162 162 162 162 162 164 168 169 170 175 174 173 174 173 174 171 167 164 162 163 162 158 157 155 154 155 152 148 148 142 136 136 136 137 140
176 178 176 166 163 169 166 161 164 165 162 164 167 168 171 171 171 173 172 170 172 174 171 170 167 164 165 163 160 159 157 156 157 154 152 150 144 144 145 140 144 152
179 181 183 177 173 174 168 162 164 166 163 164 167 169 171 172 172 175 170 166 170 173 171 171 168 166 167 165 164 164 160 161 161 160 165 161 154 159 156 149 152 155
179 182 183 183 184 182 174 167 163 162 162 163 167 169 168 169 173 173 170 168 167 168 171 170 166 169 172 169 170 171 167 170 171 169 177 176 172 176 174 171 170 168
174 181 184 185 189 190 184 176 167 160 157 158 161 163 160 165 171 171 170 171 168 167 169 166 166 178 180 174 175 176 171 175 185 185 190 194 193 192 192 192 190 195
173 182 187 188 192 194 192 187 179 170 164 161 160 160 157 154 158 165 168 167 168 171 170 167 176 187 184 179 182 183 177 178 194 203 205 208 208 207 208 209 207 213
177 186 191 195 197 195 192 190 186 181 177 172 169 170 169 160 157 163 165 162 165 168 168 176 190 193 189 188 192 195 192 190 195 211 222 221 219 219 220 226 227 226
181 191 196 199 199 194 191 190 187 184 182 177 171 171 174 171 169 171 172 171 171 167 167 183 195 198 197 198 202 209 213 209 204 214 233 234 233 233 231 231 233 232
177 193 199 200 196 191 191 192 193 188 180 173 168 167 168 169 171 175 178 180 178 175 182 194 201 214 221 221 221 220 223 226 222 220 229 235 234 235 234 232 232 234
156 181 194 194 191 192 193 197 203 196 180 172 174 177 177 178 180 184 191 199 200 206 220 224 221 230 240 245 243 234 230 236 236 232 236 238 238 236 233 231 232 234
136 146 159 170 182 193 197 200 206 197 184 182 185 186 189 194 202 209 211 213 213 215 224 227 224 227 233 238 243 242 238 239 240 241 242 244 249 251 245 240 241 243
135 133 129 135 154 169 182 195 196 186 186 191 193 193 197 203 210 217 216 215 218 217 219 223 228 233 234 236 242 246 246 244 242 245 248 250 255 261 259 253 252 251
120 120 112 107 120 138 159 179 180 177 185 196 200 198 199 205 213 217 217 218 221 222 223 227 235 239 239 239 242 245 248 250 248 249 253 256 259 264 266 264 263 261
101 104 103 100 112 135 148 151 157 168 167 172 192 196 195 202 210 214 216 217 218 221 224 226 231 236 238 238 242 244 247 248 248 249 255 260 261 261 261 261 263 268
99 98 98 97 102 122 136 137 145 160 152 140 153 171 180 193 200 202 206 206 211 221 225 225 229 235 237 238 241 243 245 247 247 247 251 258 259 258 260 264 268 277